Location: Glendale
(37.4556°N, 88.6714°W)
Time: 20:53:26
(UTC+00:00)

COBE Rocket - Pass Details

Date: 08 December 2019
Orbit: 681 x 781 km, 97.1° (Epoch: 25 January)

Event Time Altitude Azimuth Distance (km) Brightness Sun altitude
Rises 10:31:12 0° 165° (SSE) 3,167 7.5 -28.1°
Reaches altitude 10° 10:33:31 10° 164° (SSE) 2,233 6.7 -27.6°
Maximum altitude 10:38:25 82° 78° (ENE) 732 3.8 -26.7°
Enters shadow 10:38:30 82° 57° (ENE) 733 3.8 -26.7°
